Location: *
(28.3744°N, 81.5492°W)
Time: 04:07:03
(UTC+00:00)

BREEZE-M DEB (TANK) - Pass Details

Date: 15 June 2025
Orbit: 284 x 12164 km, 49.5° (Epoch: 11 July)

Event Time Altitude Azimuth Distance (km) Brightness Sun altitude
Rises 02:58:15 0° 313° (NW) 6,846 9.1 -27.1°
Reaches altitude 10° 03:04:43 10° 317° (NW) 4,205 7.7 -28.0°
Enters shadow 03:12:39 49° 19° (NNE) 942 3.6 -29.0°
